Regional Weather Roundup
Issued by NWS Sioux Falls, SD

Home | Current Version | Previous Version | Graphics & Text | Print | Product List | Glossary On
Versions: 1 2 3 4 5 6 7 8 9 10 11 12 13 14 15 16 17 18 19 20 21 22 23 24 25 26 27 28 29 30 31 32 33 34 35 36 37 38 39 40 41 42 43 44 45 46 47 48 49 50
000
ASUS43 KFSD 191410
RWRFSD

WEATHER ROUNDUP FOR SE SOUTH DAKOTA/SW MINNESOTA/NW IOWA
NATIONAL WEATHER SERVICE SIOUX FALLS SD
800 AM CST FRI DEC 19 2014

NOTE: "FAIR" INDICATES FEW OR NO CLOUDS BELOW 12,000 FEET WITH NO
SIGNIFICANT WEATHER AND OR OBSTRUCTIONS TO VISIBILITY.


SDZ038>040-050-052>070-191500-
SOUTHEAST SOUTH DAKOTA

CITY           SKY/WX    TMP DP  RH WIND       PRES   REMARKS
CHAMBERLAIN    CLEAR     14  12  92 SE3       30.06S
HURON          CLOUDY    28  26  92 S12       30.09S FOG     WCI  18
MADISON        CLOUDY    27  27 100 S16       30.10F WCI  14
MITCHELL       CLOUDY    29  27  92 S13       30.12R FOG     WCI  19
SIOUX FALLS    CLOUDY    29  26  89 S10       30.14S WCI  20
WINNER         FAIR      22  16  78 S9        30.03S WCI  12
YANKTON        CLOUDY    28  25  86 S13       30.16R WCI  18
$$

MNZ071-072-080-081-089-090-097-098-191500-
SOUTHWEST MINNESOTA

CITY           SKY/WX    TMP DP  RH WIND       PRES   REMARKS
FAIRMONT       CLOUDY    27  21  80 S10       30.20S WCI  17
JACKSON        CLOUDY    30  28  93 S7        30.18S FOG     WCI  23
LUVERNE        CLOUDY    30  28  93 S12       30.16S FOG     WCI  21
MARSHALL       CLOUDY    28  25  86 S6        30.15S WCI  22
MONTEVIDEO     CLOUDY    27  27 100 S6        30.16F FOG     WCI  20
PIPESTONE      CLOUDY    27  27 100 SW6       30.13R FOG     WCI  20
REDWOOD FALLS  CLOUDY    27  25  92 S9        30.17F WCI  18
TRACY          CLOUDY    30  28  94 S5        30.14F FOG     WCI  25
WINDOM         CLOUDY    28  28 100 CALM      30.16F FOG
WORTHINGTON    CLOUDY    28  27  93 S10       30.16S WCI  19
$$

IAZ001>003-012>014-020>022-031-032-NEZ013-014-SDZ071-191500-
NORTHWEST IOWA

CITY           SKY/WX    TMP DP  RH WIND       PRES   REMARKS
CHEROKEE       CLOUDY    30  29  99 S5        30.20S FOG     WCI  25
DENISON        CLOUDY    30  30 100 S6        30.20R FOG     WCI  24
ESTHERVILLE    CLOUDY    26  25  96 S9        30.19S FOG     WCI  17
LE MARS        CLOUDY    30  30 100 S7        30.19S FOG     WCI  23
ORANGE CITY    CLOUDY    30  28  93 S8        30.17S FOG     WCI  23
SHELDON        CLOUDY    28  28 100 S8        30.16S FOG     WCI  20
SIOUX CITY     CLOUDY    31  28  89 SE8       30.20S FOG     WCI  23
SPENCER        CLOUDY    30  27  88 S8        30.19S FOG     WCI  22
STORM LAKE     CLOUDY    28  28 100 S7        30.20S FOG     WCI  21
$$

ABBREVIATIONS USED IN REMARKS
   TC - TEMPERATURE IN CELSIUS
  WCI - WIND CHILL INDEX
   HX - HEAT INDEX
  VSB - VISIBILITY




USA.gov is the U.S. government's official web portal to all federal, state and local government web resources and services.